ONEWEB-0254 (48972 NORAD) Tracking and Keplerian Element Data

This shows tracking and keplerian element data for the satellite.

Feedback or suggestion? Click here.




ElementValue
Catalog48972
NameONEWEB-0254
Epoch Orbit1387
Epoch Day269.25001157
Epoch Year2021
RAAN211.8783
Inclination87.9052
Eccentricity0.0010497
Argument of Perigee350.6823
Mean Anonmoly303.9292
Mean Motion13.41756349
Decay Rate1.4E-07
L11 48972U 21060F 21269.25001157 .00000014 00000-0 00000+0 0 9994
L22 48972 87.9052 211.8783 0010497 350.6823 303.9292 13.41756349 13871

Live tracking and technical data element details for ONEWEB-0254 (NORAD 48972). ONEWEB-0254 can be tracked NOW for your location showing map with azimuth and elevation plus other details from your city location.

Track the satellite on the map from your city or location and see movement details for azimuth, elevation, latitude, longitude, range, height, and movement on the map or in text.







IsCatalogInMostPopularTable: catalog: 48972, numindb: 18
Update: records affected: 1



GetName: 48972 ONEWEB-0254

Hit Count: updated at: Sun, 26 Sep 2021 15:37:40 GMT